L’AEROCLUB LOUDUNAIS ET L’ANEG PARTENAIRES DU TELETHON 2020

OFFREZ VOUS OU OFFREZ A VOS PROCHES

UN VOL DE DECOUVERTE EN

CHARIOT ASCENSIONNEL, EN AVION OU EN ULM

Un cadeau de Noël extraordinaire doublé d’une action envers le Téléthon

Information en heures locale pour LFDL
09 mai 2021

Metar
LFBI 090900Z AUTO 16018KT CAVOK 22/11 Q1001 TEMPO 17015G25KT

Lever du soleil : 06:32

Coucher du soleil : 21:19

Actualité

Nous sommes heureux d’accueillir un ULM Savannah au sein de notre flotte. Grace à cet appareil, vous pourrez découvrir une …

Bonjour tout le monde !

Bienvenue à tous, l’ Aéroclub Loudunais vous accueille sur son nouveau site internet.

Newsletter Sign Up

Praesent libero sed cursus anted dapibus diam